Stündliche Wetter Abisynia

Heute, 17 Juni, Donnerstag

Zeit Temperatur Niederschläge Wind Luftdruck Luftfeuchtigkeit
00:00 +16°C° 0 mm 2 m/S 746 mmHg 91%
01:00 +15°C° 0 mm 2 m/S 746 mmHg 90%
02:00 +15°C° 0 mm 2 m/S 746 mmHg 89%
03:00 +14°C° 0 mm 2 m/S 746 mmHg 89%
04:00 +14°C° 0 mm 2 m/S 746 mmHg 89%
05:00 +13°C° 0 mm 2 m/S 746 mmHg 89%
06:00 +15°C° 0 mm 2 m/S 747 mmHg 85%
07:00 +17°C° 0 mm 2 m/S 747 mmHg 81%
08:00 +18°C° 0 mm 2 m/S 748 mmHg 77%
09:00 +20°C° 0 mm 2 m/S 748 mmHg 70%
10:00 +21°C° 0 mm 2 m/S 748 mmHg 64%
11:00 +24°C° 0 mm 2 m/S 748 mmHg 57%
12:00 +24°C° 0 mm 2 m/S 748 mmHg 56%
13:00 +25°C° 0 mm 2 m/S 748 mmHg 54%
14:00 +26°C° 0 mm 2 m/S 748 mmHg 53%
15:00 +26°C° 0 mm 2 m/S 748 mmHg 55%
16:00 +26°C° 0 mm 2 m/S 747 mmHg 57%
17:00 +26°C° 0 mm 1 m/S 747 mmHg 59%
18:00 +25°C° 0 mm 1 m/S 747 mmHg 64%
19:00 +23°C° 0 mm 1 m/S 747 mmHg 70%
20:00 +22°C° 0 mm 1 m/S 747 mmHg 75%
21:00 +20°C° 0 mm 2 m/S 747 mmHg 79%
22:00 +19°C° 0 mm 2 m/S 747 mmHg 83%
23:00 +18°C° 0 mm 2 m/S 748 mmHg 87%

Morgen, 18 Juni, Freitag

Zeit Temperatur Niederschläge Wind Luftdruck Luftfeuchtigkeit
00:00 +18°C° 0 mm 2 m/S 748 mmHg 88%
01:00 +17°C° 0 mm 2 m/S 747 mmHg 90%
02:00 +17°C° 0 mm 2 m/S 747 mmHg 92%
03:00 +17°C° 0 mm 2 m/S 747 mmHg 92%
04:00 +17°C° 0 mm 2 m/S 748 mmHg 92%
05:00 +16°C° 0 mm 2 m/S 748 mmHg 92%
06:00 +18°C° 0 mm 2 m/S 748 mmHg 87%
07:00 +20°C° 0 mm 3 m/S 748 mmHg 83%
08:00 +21°C° 0 mm 3 m/S 748 mmHg 78%
09:00 +24°C° 0 mm 3 m/S 748 mmHg 74%
10:00 +25°C° 0 mm 4 m/S 748 mmHg 70%
11:00 +26°C° 0 mm 4 m/S 748 mmHg 66%
12:00 +26°C° 0 mm 4 m/S 747 mmHg 64%
13:00 +27°C° 0 mm 4 m/S 747 mmHg 61%
14:00 +27°C° 0 mm 4 m/S 747 mmHg 58%
15:00 +27°C° 0 mm 4 m/S 747 mmHg 61%
16:00 +27°C° 0 mm 4 m/S 747 mmHg 63%
17:00 +27°C° 0 mm 4 m/S 747 mmHg 65%
18:00 +25°C° 0 mm 3 m/S 746 mmHg 70%
19:00 +24°C° 0 mm 2 m/S 746 mmHg 74%
20:00 +21°C° 0 mm 2 m/S 746 mmHg 79%
21:00 +21°C° 0 mm 2 m/S 746 mmHg 83%
22:00 +20°C° 0 mm 2 m/S 747 mmHg 87%
23:00 +19°C° 0 mm 2 m/S 747 mmHg 91%

übermorgen, 19 Juni, Samstag

Zeit Temperatur Niederschläge Wind Luftdruck Luftfeuchtigkeit
00:00 +18°C° 0 mm 2 m/S 747 mmHg 93%
01:00 +18°C° 0 mm 2 m/S 746 mmHg 94%
02:00 +18°C° 0 mm 2 m/S 746 mmHg 96%
03:00 +18°C° 0 mm 2 m/S 746 mmHg 96%
04:00 +17°C° 0 mm 2 m/S 746 mmHg 97%
05:00 +17°C° 0 mm 2 m/S 746 mmHg 98%
06:00 +19°C° 0 mm 3 m/S 746 mmHg 93%
07:00 +20°C° 0 mm 4 m/S 746 mmHg 88%
08:00 +22°C° 0 mm 5 m/S 746 mmHg 84%
09:00 +23°C° 0 mm 5 m/S 746 mmHg 78%
10:00 +25°C° 0 mm 5 m/S 746 mmHg 73%
11:00 +26°C° 0 mm 5 m/S 746 mmHg 67%
12:00 +26°C° 0.1 mm 5 m/S 746 mmHg 67%
13:00 +26°C° 0.1 mm 5 m/S 746 mmHg 68%
14:00 +26°C° 0.1 mm 5 m/S 746 mmHg 68%
15:00 +26°C° 0.4 mm 5 m/S 745 mmHg 72%
16:00 +25°C° 0.4 mm 4 m/S 745 mmHg 75%
17:00 +25°C° 0.4 mm 4 m/S 745 mmHg 78%
18:00 +23°C° 0.5 mm 4 m/S 745 mmHg 83%
19:00 +22°C° 0.5 mm 3 m/S 745 mmHg 87%
20:00 +21°C° 0.5 mm 2 m/S 745 mmHg 92%
21:00 +20°C° 0 mm 2 m/S 745 mmHg 93%
22:00 +19°C° 0 mm 2 m/S 745 mmHg 95%
23:00 +18°C° 0 mm 3 m/S 745 mmHg 96%

20 Juni, Sonntag

Zeit Temperatur Niederschläge Wind Luftdruck Luftfeuchtigkeit
00:00 +18°C° 0 mm 2 m/S 745 mmHg 96%
01:00 +18°C° 0 mm 2 m/S 745 mmHg 96%
02:00 +17°C° 0 mm 2 m/S 745 mmHg 96%
03:00 +17°C° 0 mm 2 m/S 745 mmHg 96%
04:00 +17°C° 0 mm 2 m/S 744 mmHg 97%
05:00 +17°C° 0 mm 2 m/S 744 mmHg 97%
06:00 +18°C° 0 mm 3 m/S 744 mmHg 93%
07:00 +20°C° 0 mm 3 m/S 744 mmHg 89%
08:00 +21°C° 0 mm 4 m/S 744 mmHg 85%
09:00 +23°C° 0 mm 4 m/S 744 mmHg 79%
10:00 +25°C° 0 mm 4 m/S 744 mmHg 73%
11:00 +26°C° 0 mm 4 m/S 744 mmHg 67%
12:00 +27°C° 0 mm 4 m/S 744 mmHg 65%
13:00 +27°C° 0 mm 4 m/S 743 mmHg 63%
14:00 +28°C° 0 mm 4 m/S 743 mmHg 61%
15:00 +28°C° 0 mm 4 m/S 743 mmHg 63%
16:00 +28°C° 0 mm 3 m/S 742 mmHg 66%
17:00 +27°C° 0 mm 3 m/S 742 mmHg 68%
18:00 +26°C° 0 mm 3 m/S 742 mmHg 74%
19:00 +25°C° 0 mm 3 m/S 742 mmHg 79%
20:00 +24°C° 0 mm 3 m/S 742 mmHg 85%
21:00 +21°C° 0 mm 3 m/S 742 mmHg 88%
22:00 +20°C° 0 mm 3 m/S 742 mmHg 90%
23:00 +19°C° 0 mm 3 m/S 742 mmHg 93%

21 Juni, Montag

Zeit Temperatur Niederschläge Wind Luftdruck Luftfeuchtigkeit
00:00 +19°C° 0 mm 3 m/S 741 mmHg 94%
01:00 +18°C° 0 mm 2 m/S 741 mmHg 94%
02:00 +18°C° 0 mm 2 m/S 741 mmHg 94%
03:00 +18°C° 0 mm 2 m/S 741 mmHg 95%
04:00 +18°C° 0 mm 2 m/S 741 mmHg 95%
05:00 +17°C° 0 mm 3 m/S 741 mmHg 96%
06:00 +19°C° 0 mm 3 m/S 741 mmHg 91%
07:00 +20°C° 0 mm 4 m/S 741 mmHg 85%
08:00 +22°C° 0 mm 4 m/S 741 mmHg 80%
09:00 +23°C° 0 mm 4 m/S 741 mmHg 77%
10:00 +25°C° 0 mm 4 m/S 741 mmHg 73%
11:00 +26°C° 0 mm 4 m/S 741 mmHg 70%
12:00 +26°C° 0.1 mm 4 m/S 740 mmHg 69%
13:00 +26°C° 0.1 mm 3 m/S 740 mmHg 69%
14:00 +26°C° 0.1 mm 3 m/S 740 mmHg 68%
15:00 +27°C° 0.1 mm 3 m/S 740 mmHg 69%
16:00 +27°C° 0.1 mm 3 m/S 740 mmHg 70%
17:00 +27°C° 0.1 mm 3 m/S 740 mmHg 70%
18:00 +26°C° 0.1 mm 3 m/S 739 mmHg 75%
19:00 +25°C° 0.1 mm 3 m/S 739 mmHg 80%
20:00 +22°C° 0.1 mm 3 m/S 739 mmHg 85%
21:00 +22°C° 0 mm 3 m/S 739 mmHg 88%
22:00 +21°C° 0 mm 3 m/S 739 mmHg 90%
23:00 +20°C° 0 mm 3 m/S 739 mmHg 92%

22 Juni, Dienstag

Zeit Temperatur Niederschläge Wind Luftdruck Luftfeuchtigkeit
00:00 +19°C° 0 mm 2 m/S 739 mmHg 93%
01:00 +19°C° 0 mm 2 m/S 739 mmHg 93%
02:00 +19°C° 0 mm 2 m/S 739 mmHg 94%
03:00 +19°C° 0 mm 2 m/S 739 mmHg 94%
04:00 +18°C° 0 mm 2 m/S 739 mmHg 94%
05:00 +18°C° 0 mm 2 m/S 739 mmHg 95%
06:00 +20°C° 0 mm 3 m/S 739 mmHg 90%
07:00 +22°C° 0 mm 3 m/S 739 mmHg 85%
08:00 +24°C° 0 mm 3 m/S 740 mmHg 80%
09:00 +25°C° 0 mm 3 m/S 740 mmHg 76%
10:00 +27°C° 0 mm 4 m/S 740 mmHg 71%
11:00 +28°C° 0 mm 4 m/S 740 mmHg 67%
12:00 +29°C° 0 mm 4 m/S 740 mmHg 64%
13:00 +29°C° 0 mm 3 m/S 740 mmHg 61%
14:00 +30°C° 0 mm 3 m/S 740 mmHg 58%
15:00 +30°C° 0.1 mm 3 m/S 740 mmHg 60%
16:00 +30°C° 0.1 mm 3 m/S 739 mmHg 63%
17:00 +29°C° 0.1 mm 3 m/S 739 mmHg 65%
18:00 +28°C° 0.2 mm 3 m/S 739 mmHg 71%
19:00 +26°C° 0.2 mm 3 m/S 740 mmHg 77%
20:00 +25°C° 0.2 mm 2 m/S 740 mmHg 84%
21:00 +24°C° 0.2 mm 2 m/S 740 mmHg 86%
22:00 +23°C° 0.2 mm 2 m/S 740 mmHg 87%
23:00 +21°C° 0.2 mm 2 m/S 740 mmHg 89%
Mehr zeigen

Wir brauchen deine Erlaubnis

Meteoprog und unser Service Anbieter werden persönliche Daten aufbewahren, so wie Cookies, Geräte Bezeichnung oder ähnliche Technologien von deinem Gerät und Prozess, so wie Persönliche Daten Inhalte und Werbungen, genauso wie social Media und den Verkehr zu analysieren.

  • Aufbewahrung und/oder Zugang zu deiner Geräte Informationen.

    Cookies, Geräte Bezeichnung oder andere Informationen, können aufbewahrt oder Zugang zu deinem Gerät erhalten, für den Grund, der oben angegeben wird.

  • Personalisierte Werbung und Inhalte, Messungen, Einblick in das Publikum und Produkt Entwicklung.

    Werbungen und Inhalte können personalisiert werden, basierend auf ein Profil. Mehr Daten können besser personalisierte Werbungen und Inhalte hinzufügen. Werbung und Inhalte können gezeigt und gemessen werden. Einblicke über das Publikum, welche die Werbung gesehen haben und den Inhalt, können abgeleitet werden. So wie Daten können genutzt werden, um es zu verbessern oder die Benutzer Erfahrung zu verbessern das System und die Software.

Wenn du “Ich stimme zu” klickst, erlaubst du uns, die Cookies zu benutzen die Geräte Bezeichnung, den Web oder ähnliche Technologien zu benutzen. Deine Settings, können in deinem Gerät bei deinem Browser geändert werden.

Für den bestimmten Zweck, berechtigten Interessen beruhen darauf, mehr als auf den Inhalt. Du kannst mehr darüber in unseren Privaten und Cookie Politik lesen.